Regional Weather Roundup
Issued by NWS

Home | Current Version | Previous Version | Text Only | Print | Product List | Glossary On
Versions: 1 2 3 4 5 6 7 8 9 10 11 12 13 14 15 16 17 18 19 20 21 22 23 24 25 26 27
000
ASPQ40 PGUM 240812
RWRPQ
WEATHER ROUNDUP FOR THE MARIANAS AND MICRONESIA
NATIONAL WEATHER SERVICE TIYAN GU
600 PM CHST SAT JUN 24 2017

GUZ001>004-240900-
MARIANA ISLANDS-

CITY           SKY/WX    TMP DP  RH WIND       PRES   REMARKS
GUAM AIRPORT   SUNNY     88  75  66 NE10      29.80R HX  97
ANDERSEN AFB   SUNNY     84  75  74 NE10      29.81R HX  92
ROTA AIRPORT   PTSUNNY   84  75  74 NE9       29.80R HX  92
TINIAN AP      PTSUNNY   81  75  83 E8        29.79R
SAIPAN AP      LGT RAIN  81  79  94 E17       29.81R

$$

PMZ161-240900-
REPUBLIC OF PALAU-

CITY           SKY/WX    TMP DP  RH WIND       PRES   REMARKS
KOROR AP       PTSUNNY   84  73  70 SW5       29.74R HX  91
KOROR WSO      PTSUNNY   88  73  62 SW5       29.75R HX  96

$$

PMZ171>174-240900-
FEDERATED STATES OF MICRONESIA-

CITY           SKY/WX    TMP DP  RH WIND       PRES   REMARKS
YAP AIRPORT    PTSUNNY   86  77  74 VRB6      29.73R HX  97
CHUUK AP       MOCLDY    84  82  94 VRB6      29.76R HX 101
POHNPEI AP     NOT AVBL
POHNPEI WSO    NOT AVBL
KOSRAE AP      NOT AVBL

$$

PMZ181-240900-
REPUBLIC OF THE MARSHALL ISLANDS-

CITY           SKY/WX    TMP DP  RH WIND       PRES   REMARKS
KWAJALEIN AP   CLEAR     84  75  74 E18       29.78R HX  92
MAJURO AP      NOT AVBL
MAJURO WSO     MOCLDY    82  77  83 NE9       29.77R HX  91

$$





USA.gov is the U.S. government's official web portal to all federal, state and local government web resources and services.